Gonzales Roger M. Dreyer Memo, TX

4:37 PM CST on December 12, 2019 (GMT -0600)
Gonzales Roger M. Dreyer Memo

Weather History for KT20 - October, 2019

Change the Weather History Date:

Monday, October 21, 2019

  Actual Average (KVCT) Record (KVCT)
Temperature  
Mean Temperature 72 °F -  
Max Temperature 81 °F 80 °F 96 °F (1926)
Min Temperature 61 °F 60 °F 41 °F (1976)
Cooling Degree Days 6    
Growing Degree Days 22 (Base 50)    
Moisture  
Dew Point 55 °F    
Average Humidity 59    
Maximum Humidity 98    
Minimum Humidity 23    
Precipitation  
Precipitation 0.33 in - - ()
Sea Level Pressure  
Sea Level Pressure 29.85 in    
Wind  
Wind Speed 8 mph (NNE)    
Max Wind Speed 16 mph    
Max Gust Speed 36 mph    
Visibility 10 miles    
Events Rain , Thunderstorm    
Averages and records for this station are not official NWS values.
T = Trace of Precipitation, MM = Missing Value Source: NWS Daily Summary

Daily Weather History Graph

Daily Weather History Graph

Search for Another Location

Airport or City:

Astronomy

Oct. 21, 2019 Rise Set
Actual Time 7:35 AM CDT 6:53 PM CDT
Civil Twilight 7:10 AM CDT 7:17 PM CDT
Nautical Twilight 6:43 AM CDT 7:45 PM CDT
Astronomical Twilight 6:15 AM CDT 8:12 PM CDT
Moon 12:21 AM CDT (10/21) 2:39 PM CDT (10/21)
Length of Visible Light 12h 06m
Length of Day
11h 18m
Waning Gibbous, 48% of the Moon is Illuminated
Oct 21
Waning Gibbous
Oct 27
New
Nov 4
First Quarter
Nov 12
Full
Nov 19
Last Quarter

Hourly Weather History & Observations

Time (CDT) Temp. Heat Index Dew Point Humidity Pressure Visibility Wind Dir Wind Speed Gust Speed Precip Events Conditions
12:15 AM 80.2 °F 86.3 °F 77.0 °F 90% 29.74 in 10.0 mi South 10.4 mph - N/A   Overcast
12:35 AM 80.2 °F 86.3 °F 77.2 °F 90% 29.73 in 10.0 mi South 9.2 mph - N/A   Overcast
12:55 AM 80.2 °F 86.3 °F 77.2 °F 90% 29.71 in 10.0 mi South 10.4 mph 17.3 mph N/A   Overcast
1:15 AM 80.2 °F 86.5 °F 77.4 °F 91% 29.71 in 10.0 mi South 8.1 mph - N/A   Overcast
1:35 AM 80.2 °F 86.5 °F 77.5 °F 91% 29.71 in 10.0 mi South 9.2 mph - N/A   Overcast
1:55 AM 80.2 °F 86.8 °F 77.9 °F 93% 29.70 in 10.0 mi South 5.8 mph - N/A   Overcast
2:15 AM 80.2 °F 86.8 °F 77.9 °F 93% 29.71 in 10.0 mi South 6.9 mph - N/A   Overcast
2:35 AM 80.2 °F 86.8 °F 77.9 °F 93% 29.71 in 10.0 mi South 5.8 mph - N/A   Overcast
2:55 AM 79.7 °F - 77.9 °F 94% 29.72 in 10.0 mi SW 3.5 mph - N/A   Overcast
3:15 AM 80.6 °F 87.3 °F 77.4 °F 90% 29.72 in 10.0 mi SSW 4.6 mph - N/A   Overcast
3:35 AM 80.8 °F 87.6 °F 77.2 °F 89% 29.72 in 10.0 mi WSW 6.9 mph - N/A   Overcast
3:55 AM 80.8 °F 87.6 °F 77.2 °F 89% 29.72 in 10.0 mi SSW 5.8 mph - N/A Rain Light Rain
4:15 AM 79.0 °F - 77.9 °F 96% 29.68 in 7.0 mi South 10.4 mph - 0.01 in Rain Light Rain
4:35 AM 78.8 °F - 77.9 °F 97% 29.74 in 7.0 mi NNW 13.8 mph - 0.01 in   Scattered Clouds
4:55 AM 68.9 °F - 63.5 °F 83% 29.76 in 10.0 mi NNW 15.0 mph 35.7 mph 0.01 in Rain Light Rain
5:15 AM 66.2 °F - 64.9 °F 96% 29.76 in 2.0 mi North 10.4 mph 23.0 mph 0.27 in Rain , Thunderstorm Heavy Thunderstorms and Rain
5:35 AM 66.6 °F - 65.5 °F 96% 29.75 in 10.0 mi East 3.5 mph - 0.27 in Thunderstorm Overcast
5:55 AM 66.6 °F - 65.8 °F 98% 29.75 in 10.0 mi West 3.5 mph - 0.27 in Thunderstorm Mostly Cloudy
6:15 AM 66.6 °F - 66.0 °F 98% 29.77 in 7.0 mi West 4.6 mph - 0.03 in Rain Rain
6:35 AM 66.6 °F - 65.8 °F 98% 29.76 in 10.0 mi Calm Calm - 0.04 in Rain Rain
6:55 AM 66.4 °F - 65.5 °F 97% 29.77 in 10.0 mi North 4.6 mph - 0.04 in   Mostly Cloudy
7:15 AM 67.3 °F - 64.8 °F 92% 29.78 in 10.0 mi North 5.8 mph - N/A   Overcast
7:35 AM 67.3 °F - 64.9 °F 92% 29.79 in 10.0 mi NNW 5.8 mph - N/A   Overcast
7:55 AM 67.3 °F - 65.3 °F 93% 29.80 in 10.0 mi North 8.1 mph - N/A   Overcast
8:15 AM 66.7 °F - 65.3 °F 95% 29.81 in 10.0 mi NNE 4.6 mph - N/A   Scattered Clouds
8:35 AM 67.6 °F - 64.9 °F 91% 29.82 in 10.0 mi North 8.1 mph - N/A   Scattered Clouds
8:55 AM 68.0 °F - 63.9 °F 87% 29.84 in 10.0 mi North 6.9 mph - N/A   Scattered Clouds
9:15 AM 67.6 °F - 61.3 °F 80% 29.86 in 10.0 mi North 10.4 mph 17.3 mph N/A   Mostly Cloudy
9:35 AM 68.2 °F - 59.0 °F 72% 29.87 in 10.0 mi North 9.2 mph - N/A   Mostly Cloudy
9:55 AM 70.5 °F - 56.3 °F 61% 29.87 in 10.0 mi NNE 11.5 mph 17.3 mph N/A   Scattered Clouds
10:15 AM 71.1 °F - 53.6 °F 54% 29.89 in 10.0 mi NNE 9.2 mph 19.6 mph N/A   Clear
10:35 AM 71.6 °F - 52.3 °F 51% 29.90 in 10.0 mi North 16.1 mph 24.2 mph 0.01 in   Clear
10:55 AM 72.1 °F - 48.6 °F 43% 29.90 in 10.0 mi NNE 12.7 mph 25.3 mph 0.01 in   Clear
11:15 AM 73.2 °F - 45.7 °F 37% 29.90 in 10.0 mi NNE 16.1 mph 23.0 mph N/A   Clear
11:35 AM 73.9 °F - 44.4 °F 35% 29.90 in 10.0 mi NNE 11.5 mph 21.9 mph N/A   Clear
11:55 AM 75.2 °F - 45.0 °F 34% 29.91 in 10.0 mi NNE 11.5 mph 16.1 mph N/A   Clear
12:15 PM 75.6 °F - 43.9 °F 32% 29.91 in 10.0 mi NNE 10.4 mph 19.6 mph N/A   Clear
12:35 PM 76.5 °F - 44.4 °F 32% 29.90 in 10.0 mi NNE 10.4 mph 17.3 mph N/A   Clear
12:55 PM 77.4 °F - 45.7 °F 32% 29.89 in 10.0 mi ENE 10.4 mph 18.4 mph N/A   Clear
1:15 PM 78.1 °F - 45.9 °F 32% 29.89 in 10.0 mi NNE 6.9 mph - N/A   Clear
1:35 PM 78.8 °F - 45.9 °F 31% 29.88 in 10.0 mi NE 9.2 mph - N/A   Clear
1:55 PM 79.3 °F - 44.6 °F 29% 29.87 in 10.0 mi NE 8.1 mph - N/A   Clear
2:15 PM 79.9 °F - 43.9 °F 28% 29.87 in 10.0 mi NE 9.2 mph - N/A   Clear
2:35 PM 80.2 °F - 42.3 °F 26% 29.86 in 10.0 mi NE 10.4 mph 17.3 mph N/A   Clear
2:55 PM 80.6 °F - 42.1 °F 25% 29.87 in 10.0 mi NNE 6.9 mph - N/A   Clear
3:15 PM 81.0 °F - 41.5 °F 25% 29.87 in 10.0 mi ENE 5.8 mph - N/A   Clear
3:35 PM 81.3 °F - 42.6 °F 25% 29.86 in 10.0 mi North 8.1 mph - N/A   Clear
3:55 PM 81.5 °F - 41.7 °F 24% 29.87 in 10.0 mi NNE 4.6 mph - N/A   Clear
4:15 PM 81.7 °F - 40.5 °F 23% 29.87 in 10.0 mi NNE 6.9 mph - N/A   Clear
4:35 PM 81.5 °F - 40.1 °F 23% 29.87 in 10.0 mi North 10.4 mph - N/A   Clear
4:55 PM 81.1 °F - 40.8 °F 24% 29.86 in 10.0 mi NE 4.6 mph - N/A   Clear
5:15 PM 80.8 °F - 39.4 °F 23% 29.86 in 10.0 mi North 5.8 mph - N/A   Clear
5:35 PM 80.2 °F - 40.6 °F 24% 29.86 in 10.0 mi NE 6.9 mph - N/A   Clear
5:55 PM 79.2 °F - 39.2 °F 24% 29.87 in 10.0 mi NNE 4.6 mph - N/A   Clear
6:15 PM 77.7 °F - 43.7 °F 30% 29.87 in 10.0 mi NNE 3.5 mph - N/A   Clear
6:35 PM 75.7 °F - 44.6 °F 33% 29.89 in 10.0 mi NE 3.5 mph - N/A   Clear
6:55 PM 73.6 °F - 44.1 °F 35% 29.90 in 10.0 mi NNE 3.5 mph - N/A   Clear
7:15 PM 70.7 °F - 45.0 °F 40% 29.92 in 10.0 mi NNE 4.6 mph - N/A   Clear
7:35 PM 68.9 °F - 45.1 °F 42% 29.93 in 10.0 mi NNE 4.6 mph - N/A   Clear
7:55 PM 68.0 °F - 44.6 °F 43% 29.95 in 10.0 mi NNE 3.5 mph - N/A   Clear
8:15 PM 67.3 °F - 44.2 °F 43% 29.96 in 10.0 mi NNE 4.6 mph - N/A   Clear
8:35 PM 66.9 °F - 43.5 °F 43% 29.98 in 10.0 mi NNE 5.8 mph - N/A   Clear
8:55 PM 66.2 °F - 43.2 °F 43% 29.99 in 10.0 mi NNE 4.6 mph - N/A   Clear
9:15 PM 66.0 °F - 42.6 °F 43% 29.99 in 10.0 mi NNE 5.8 mph - N/A   Clear
9:35 PM 67.1 °F - 41.9 °F 40% 30.00 in 10.0 mi NE 6.9 mph - N/A   Clear
9:55 PM 66.4 °F - 42.1 °F 41% 30.01 in 10.0 mi NE 8.1 mph - N/A   Clear
10:15 PM 64.4 °F - 43.9 °F 47% 30.02 in 10.0 mi NE 6.9 mph - N/A   Clear
10:35 PM 63.9 °F - 43.7 °F 48% 30.02 in 10.0 mi ENE 6.9 mph - N/A   Clear
10:55 PM 62.6 °F - 44.6 °F 52% 30.03 in 10.0 mi NE 6.9 mph - N/A   Clear
11:15 PM 62.6 °F - 43.9 °F 50% 30.04 in 10.0 mi NE 8.1 mph - N/A   Clear
11:35 PM 62.6 °F - 43.3 °F 49% 30.04 in 10.0 mi NE 8.1 mph - N/A   Clear
11:55 PM 61.9 °F - 43.7 °F 51% 30.04 in 10.0 mi NE 5.8 mph - N/A   Clear